TITAN 3C TRANSTAGE DEB, 43515

Orbit data source: Space-Track

TITAN 3C TRANSTAGE DEB, 43515 is space debris in GEO originally from a launch on Sun, 09 Feb 1969 UTC launched from the Air Force Eastern Test Range (AFETR). Debris objects in space refer to the collection of defunct objects orbiting the Earth. Examples of debris include non-operational satellites, rocket bodies, and fragments generated from explosions, collisions, or faulty payload assembly.

Not visible in the next 10 days
Identifier
43515, 1969-013T
Orbit
GEO
Country
Flag of USUS
Related business
Manufacturer
Martin Marietta
Mission
Spacecraft
Bus & Motor
Unknown
Mass
Unknown
Launch date (UTC)
1969-02-09 (57 years ago)
Launch vehicle
Unknown
Launch site
Air Force Eastern Test Range (AFETR)
Object type
Payload
Rocket body
Debris
Shape & HBR
Unknown
Radar Cross Section
RCS unknown

Expand to show TLE details & history
Last TLE update: 5 days ago

TLE from 5 days ago
0 TITAN 3C TRANSTAGE DEB
1 43515U 69013T   25255.76284111 -.00000201  00000-0  00000-0 0  9990
2 43515   1.1778  46.7715 0328934 154.7974 207.7986  0.95447965 25577
Epoch: 2025-09-12T18:18Z
TLE epoch observation values (Epoch: 2025-09-12T18:18:29.471Z)
Latitude
-0.00001°
Longitude
141.0165°
Altitude
38,473.385 km
Speed
2.937 km/s
True Right ascension
03h 10m 34s
True Declination
0° 00' 00"
Sunlit
Object was in daylight at epoch
Visualization orbit readout
Latitude
Unknown
Longitude
Unknown
Altitude
Unknown
Speed
Unknown
Apparent Right ascension
Unknown
Apparent Declination
Unknown
Sunlit
N/A
Visualization observer readout
Local Sidereal Time
02:34:37
Azimuth
Unknown
Elevation
Unknown
Doppler factor
Unknown
Orbital elements
Apogee altitude
38,629.883 km
Perigee altitude
35,763.243 km
Semi-major axis
43,574.7 km
Eccentricity
0.03289
Inclination
1.1778°
RAAN
46.7715°
Arg. of periapsis
154.7974°
True anomaly
206.10275°
Mean anomaly
207.7986°
Eccentric anomaly
206.94461°
Mean motion
0.23861 °/min
Orbital period
1,508.73 mins
BSTAR
0
Loading maneuver chart data...
Computing Atmospheric mass density...

Documentation

Showing up to 5 results
|